Location: Bletchingley
(51.2333°N, 0.1000°W)
Time: 15:52:34
(UTC+00:00)

Resurs 01 Rocket - Pass Details

Date: 18 September 2020
Orbit: 633 x 645 km, 98.0° (Epoch: 30 October)

Event Time Altitude Azimuth Distance (km) Brightness Sun altitude
Exits shadow 20:56:49 42° 226° (SW) 928 2.4 -25.3°
Maximum altitude 20:57:41 48° 261° (W) 850 2.4 -25.5°
Drops below altitude 10° 21:02:01 10° 336° (NNW) 2,054 5.1 -26.0°
Sets 21:04:19 0° 342° (NNW) 2,968 6.0 -26.2°
